Location: *
(37.5724°S, 58.0067°E)
Time: 20:49:25
(UTC+00:00)

SeaSat 1 - Pass Details

Date: 26 September 2020
Orbit: 744 x 748 km, 108.0° (Epoch: 27 October)

Event Time Altitude Azimuth Distance (km) Brightness Sun altitude
Rises 14:39:44 0° 145° (SE) 3,217 5.4 -7.1°
Reaches altitude 10° 14:42:14 10° 135° (SE) 2,285 4.6 -7.5°
Maximum altitude 14:46:42 33° 71° (ENE) 1,247 3.1 -8.4°
Drops below altitude 10° 14:51:07 10° 7° (N) 2,259 4.8 -9.3°
Sets 14:53:34 0° 357° (N) 3,174 5.6 -9.8°
